Theta_e
325 326 327 329 330 328 326 326 325 325 326 327 326 327 336 342 329 328 354 357 338 339 345 340 340 339 339 340 337 336 339 338 340 341 340 341 341 341 341 341 342 342 341 342 343 344 346 346 347 349 349 349 350 350 350 351 351 352 352 351 351 348 341 333 332 331 324 322 326 326 325 323 319 319 322 323 321 320 320 321 321 321 321 321 323 326 326
325 324 324 326 326 326 326 326 327 325 325 326 324 329 337 337 333 341 352 351 343 340 339 338 336 333 334 335 335 337 338 339 340 341 341 342 341 341 342 341 342 340 340 341 342 343 345 346 347 349 349 350 350 350 351 351 352 352 352 352 351 350 347 339 335 333 326 324 328 328 326 324 321 323 326 323 320 320 321 321 321 321 321 321 323 325 326
324 323 325 326 323 325 324 324 329 327 325 326 324 330 336 333 336 345 344 342 343 340 339 338 331 329 334 335 335 336 338 339 340 341 342 342 342 343 342 340 340 339 340 342 342 343 344 345 347 348 348 349 349 351 352 351 352 352 351 352 352 351 351 344 339 334 327 327 332 331 327 325 325 326 326 321 320 321 321 321 322 321 321 321 323 325 325
322 322 324 325 324 325 322 321 327 326 326 329 328 333 339 336 341 347 339 336 339 340 343 340 333 333 338 336 334 335 336 338 340 341 343 343 343 342 340 338 339 340 341 341 342 343 344 345 347 347 348 350 350 352 352 351 352 352 352 353 352 352 352 346 340 335 329 330 336 333 328 328 330 328 322 320 321 321 321 322 322 321 321 321 322 323 323
323 325 325 325 324 321 321 329 333 331 333 336 334 338 342 341 347 350 340 336 339 342 343 341 339 341 340 335 334 334 335 337 339 341 343 342 341 340 338 340 340 339 340 339 340 341 342 344 345 346 348 350 350 351 351 352 353 352 352 353 352 352 350 345 341 335 330 332 338 335 330 332 332 326 320 320 321 321 322 322 322 321 321 321 321 322 322
324 329 328 325 323 320 328 345 344 335 337 339 338 339 339 343 350 350 344 340 343 344 341 339 341 341 336 333 333 333 336 338 339 341 341 340 339 338 338 339 338 338 339 340 340 341 342 344 345 347 349 350 350 351 352 353 353 353 353 352 350 349 347 345 343 338 332 332 337 336 333 332 329 323 321 321 321 322 322 322 321 321 321 321 321 322 322
329 332 327 321 321 328 344 351 342 335 335 337 339 339 337 342 348 350 348 344 343 343 338 334 334 334 333 333 334 335 336 337 339 340 338 337 337 336 337 337 337 338 339 340 341 342 343 344 345 348 350 351 351 352 353 353 353 353 353 351 350 349 348 346 344 341 337 335 336 336 334 331 327 323 322 323 321 322 322 321 322 321 321 321 321 321 322
327 327 323 320 325 337 349 345 336 338 337 335 340 339 335 338 340 344 350 345 340 339 334 331 333 333 333 334 334 335 336 336 337 337 335 335 335 335 336 336 337 339 340 341 342 343 344 346 346 347 348 349 351 352 353 354 354 354 352 351 350 349 348 346 344 343 340 336 335 337 335 332 328 324 324 324 323 322 322 321 322 321 321 321 321 321 322
334 334 325 327 334 336 343 344 337 336 335 335 339 338 335 338 338 338 344 343 339 337 332 332 334 334 336 339 337 336 335 335 336 336 335 336 335 335 336 336 336 337 336 337 337 339 342 345 348 350 349 348 350 352 353 354 354 353 351 349 347 346 347 346 344 343 341 337 336 338 336 332 329 326 326 327 326 324 322 322 322 321 321 321 321 322 322
341 341 327 332 337 332 338 347 340 333 331 333 338 338 336 341 339 335 337 341 342 341 335 332 334 335 340 345 341 336 336 336 335 335 334 334 334 333 334 334 334 334 333 334 335 336 338 342 347 351 351 350 350 351 352 353 352 349 347 346 346 345 346 345 343 341 340 338 337 338 335 332 331 331 330 330 328 324 323 323 323 322 322 322 322 322 322
343 345 335 335 336 334 340 344 338 333 331 332 336 335 333 340 339 331 334 338 339 338 334 331 333 337 342 345 339 335 335 334 333 334 334 333 334 333 333 333 333 334 335 335 336 337 339 340 344 347 350 351 351 351 351 351 351 350 348 347 346 345 344 345 343 340 340 340 338 336 334 331 333 334 333 331 329 327 328 330 329 327 325 325 324 323 322
346 346 339 334 335 340 343 340 335 334 332 333 335 332 332 340 337 330 333 336 334 332 331 332 337 340 341 341 338 334 335 335 334 334 335 334 334 334 333 334 335 335 335 335 337 339 339 339 341 344 347 350 350 350 351 351 351 351 349 348 347 345 343 343 343 341 340 340 339 337 335 333 333 335 334 333 333 334 335 336 335 334 333 332 330 328 327
344 340 335 332 337 345 343 337 334 332 334 339 339 335 336 337 333 331 332 332 331 330 330 333 338 337 335 335 335 333 334 334 333 334 334 334 334 334 334 335 335 335 336 338 340 341 339 338 340 343 346 348 350 351 351 351 350 349 348 347 346 345 342 341 341 342 341 339 339 337 335 333 334 335 335 335 336 337 338 338 338 338 338 337 335 333 332
342 344 340 331 335 341 336 333 334 333 340 345 339 335 336 334 332 334 334 332 333 334 334 335 336 336 335 336 336 335 335 334 334 335 335 334 335 336 336 337 337 338 340 340 340 339 338 337 340 343 347 349 350 351 351 351 350 348 346 345 344 344 341 340 340 341 340 338 337 336 335 335 335 336 337 337 338 339 339 340 340 340 340 339 337 335 334
340 348 342 330 334 338 332 336 345 342 342 342 335 333 335 333 333 335 334 334 335 335 335 336 336 336 336 335 335 335 336 336 336 336 336 336 337 338 338 339 340 340 341 340 339 339 340 341 343 346 348 349 351 352 352 351 348 345 344 343 342 341 340 338 339 338 337 336 337 336 336 335 336 338 339 339 340 340 340 341 341 340 338 337 336 335 333
342 348 341 332 336 337 331 337 347 340 335 336 334 333 334 334 335 336 336 337 337 334 334 334 333 335 335 335 336 336 336 338 338 337 338 338 339 340 340 339 339 340 341 342 343 343 343 344 345 347 348 350 351 351 350 348 346 344 342 341 340 338 338 337 336 334 333 336 337 336 337 338 339 339 340 340 340 339 339 340 340 338 334 333 333 333 333
338 342 340 335 333 332 330 332 334 332 333 335 335 334 334 336 337 337 337 338 337 336 335 333 332 334 334 334 336 337 337 337 337 337 339 339 340 341 340 340 340 342 346 347 346 345 344 344 347 349 350 351 351 350 347 345 343 342 339 338 337 337 336 335 333 332 334 336 336 337 338 338 338 337 338 338 338 339 340 340 339 335 331 329 331 332 333
336 334 335 335 332 330 330 330 329 330 332 333 335 336 335 335 338 338 336 336 335 335 334 332 332 332 331 331 332 333 336 336 337 338 339 339 340 340 342 344 347 348 349 349 346 346 347 347 349 351 352 352 351 348 345 343 341 340 337 336 337 337 335 334 333 334 334 331 329 332 334 334 335 336 338 338 337 339 340 338 335 332 329 328 329 330 331
341 338 337 337 333 331 330 329 329 331 330 330 333 333 331 333 336 336 335 335 335 334 333 332 333 332 330 329 328 328 330 333 336 337 338 338 339 339 342 348 350 350 350 348 346 347 348 349 350 352 353 353 350 346 344 343 341 340 338 337 338 337 336 337 337 334 330 328 330 331 330 331 333 334 336 336 336 336 336 333 331 329 328 328 329 329 330
345 343 338 335 332 330 330 330 329 329 330 329 329 328 329 332 334 334 334 335 335 335 334 333 333 333 332 331 330 329 328 328 329 331 333 336 337 338 342 346 348 349 349 348 347 348 349 349 350 350 351 351 348 346 344 342 340 339 339 338 338 337 336 337 336 334 334 335 334 331 329 328 328 328 331 332 332 332 331 330 329 329 328 328 328 328 329
343 338 335 334 333 332 331 330 329 329 330 329 328 328 328 331 331 331 331 332 331 331 333 332 331 332 333 332 330 330 330 328 326 329 332 335 337 338 341 343 345 347 348 349 350 351 350 349 348 346 346 346 346 345 343 340 338 337 336 334 334 335 334 330 329 332 336 333 327 322 323 323 323 324 327 328 329 330 330 329 329 328 327 327 327 328 328
340 339 337 335 335 334 332 330 329 328 328 328 328 327 327 326 326 327 327 327 328 328 328 329 328 327 328 328 328 329 332 331 329 329 330 331 334 337 339 341 343 346 349 351 352 351 350 348 346 343 343 344 344 342 339 336 332 329 328 327 328 330 329 325 324 330 333 329 323 320 319 321 323 326 328 328 329 330 329 328 327 326 325 326 327 327 327
338 338 335 331 331 332 330 327 326 325 324 325 324 324 324 323 323 325 325 324 326 325 325 326 327 326 326 328 331 333 334 333 331 330 330 330 331 333 337 339 342 344 346 348 348 348 347 345 343 343 342 342 340 337 335 333 329 329 330 329 327 327 326 324 327 330 330 329 327 323 322 324 327 329 330 330 329 328 326 325 325 325 326 327 327 327 326
333 332 330 326 326 326 325 324 324 322 322 323 322 322 323 322 321 322 322 322 323 323 323 324 325 326 326 328 332 335 336 335 334 332 331 331 330 331 334 338 340 341 341 342 343 344 344 343 342 342 339 337 335 332 329 327 326 328 329 326 324 325 326 328 334 336 334 331 329 325 325 328 329 329 330 329 327 325 324 324 325 325 327 327 326 325 324
327 325 324 322 322 322 322 322 323 322 322 322 322 321 322 321 321 322 321 321 321 322 322 323 324 326 328 329 333 336 337 337 336 334 333 333 331 331 332 335 337 339 339 339 341 342 342 342 342 338 334 331 329 326 324 323 323 324 324 321 322 325 325 329 336 338 334 330 328 326 327 328 328 328 327 326 325 325 324 324 325 326 326 326 325 323 323
323 322 322 322 321 322 322 321 321 321 321 322 322 322 321 321 321 321 320 321 321 321 322 323 323 325 328 331 334 337 338 339 337 335 334 334 332 332 333 334 336 337 337 338 340 340 339 340 339 335 331 328 325 323 323 323 323 323 323 323 324 325 324 327 332 332 330 328 327 326 326 325 324 325 325 324 325 326 325 326 326 326 326 325 324 324 324
322 322 323 323 320 320 320 320 319 319 320 321 321 321 321 321 321 321 320 321 320 321 321 322 322 324 325 327 330 333 335 337 337 336 335 334 334 335 336 337 337 337 337 338 340 339 337 336 335 333 330 328 327 326 325 324 324 324 325 325 324 324 323 324 325 325 324 324 323 323 324 324 324 325 326 326 327 327 327 327 327 326 326 325 325 325 324
322 322 322 321 320 320 320 320 320 320 321 321 321 321 321 321 322 321 320 320 320 320 320 320 321 322 323 324 325 326 328 329 331 333 334 335 336 336 336 337 338 337 338 339 339 338 335 332 331 330 329 328 328 327 326 324 324 324 325 326 325 323 321 321 321 321 321 321 321 322 324 325 327 327 327 327 327 327 327 327 327 326 326 325 324 324 322
317 318 318 317 318 318 319 319 321 321 320 320 321 321 321 321 320 320 320 319 319 319 319 320 320 320 321 321 322 322 323 323 324 326 328 331 334 336 336 337 338 338 338 339 338 336 333 330 330 331 329 327 325 324 324 325 326 326 327 328 327 324 323 322 322 321 321 322 323 324 326 327 328 328 327 326 326 326 326 326 326 326 325 324 323 322 321
314 314 314 314 314 314 315 316 317 318 319 319 320 319 319 320 320 320 320 320 319 319 320 320 320 320 320 320 320 320 321 321 321 323 324 325 328 331 334 336 337 337 338 338 338 337 335 333 331 329 326 324 323 324 325 327 329 330 330 329 328 326 325 324 322 322 323 325 326 326 327 327 327 326 325 324 324 324 324 324 324 323 323 323 322 321 319
315 314 314 314 313 313 314 314 314 316 317 318 319 319 319 320 320 320 321 321 321 321 321 321 320 320 320 320 320 319 319 319 320 321 322 323 325 327 330 334 336 335 335 336 337 336 335 333 331 328 325 325 326 328 329 330 330 331 330 329 329 328 326 324 322 322 325 326 326 325 326 325 325 324 324 323 323 323 322 323 322 322 323 322 321 320 321
315 315 316 317 316 315 315 315 315 316 318 319 320 320 321 321 321 322 322 322 322 322 322 322 321 321 321 321 320 320 320 320 319 319 320 321 323 324 326 331 335 336 336 336 335 334 332 332 331 329 328 329 330 331 331 330 330 330 329 327 327 327 326 324 323 323 324 325 324 324 324 324 324 324 323 322 322 322 322 322 322 322 322 321 319 320 321
317 318 319 319 319 319 319 318 318 319 319 320 320 321 321 321 321 321 322 321 321 322 322 322 322 321 321 321 321 322 322 322 321 320 320 320 321 322 323 326 331 335 336 336 334 333 332 332 332 331 331 331 331 331 331 331 330 329 327 324 324 326 326 325 324 324 325 325 325 324 324 323 323 323 322 322 322 322 322 322 322 322 321 320 319 319 320
319 320 320 320 320 320 320 320 320 320 320 321 321 321 322 322 321 321 321 321 321 321 321 321 321 321 321 321 321 322 323 323 323 323 322 320 320 321 322 323 327 330 332 332 332 332 333 333 333 333 332 330 329 329 331 332 329 327 326 324 325 326 326 324 324 324 325 325 324 324 323 323 322 322 322 321 321 321 322 322 322 321 320 318 318 319 320
319 319 320 321 320 321 321 321 321 321 321 321 322 322 322 322 322 322 321 321 321 321 321 321 321 321 320 320 320 321 322 323 323 323 323 322 322 323 323 324 326 328 328 329 331 333 334 334 333 332 329 327 327 329 331 331 329 327 326 326 325 325 324 324 324 324 324 324 323 323 322 322 322 321 321 321 321 321 321 321 321 320 318 317 317 318 319
319 320 321 321 321 321 321 321 321 322 322 322 322 322 322 322 322 321 322 321 321 321 321 320 320 320 319 319 319 319 320 321 321 322 322 322 322 323 325 326 327 328 329 330 332 333 333 333 331 329 327 327 328 329 330 329 328 327 326 325 324 324 324 323 323 323 322 322 323 322 322 321 321 320 320 320 320 320 320 319 319 319 318 317 316 317 316
320 321 321 321 321 322 322 322 322 322 323 322 322 322 322 321 321 321 321 320 320 320 320 319 319 319 319 319 319 319 320 322 322 322 323 322 322 323 326 328 329 329 330 332 332 332 331 330 329 328 327 328 328 329 328 327 326 325 324 323 323 323 322 322 321 321 320 320 320 320 320 319 319 319 318 318 318 318 318 318 318 318 318 317 316 316 315
320 320 321 321 321 321 321 322 322 322 322 322 321 321 321 321 320 320 320 320 320 320 319 320 320 321 321 321 321 322 323 325 325 326 326 326 325 325 327 329 330 330 330 330 330 330 329 328 327 327 328 328 328 327 326 325 324 324 323 322 322 321 321 321 320 319 318 317 317 318 318 316 316 315 315 315 316 315 315 314 315 316 316 315 315 314 313
319 320 320 320 320 321 321 322 322 322 321 321 321 321 320 320 320 320 320 320 320 320 320 321 322 323 323 323 324 324 325 326 326 327 328 328 329 329 329 330 329 328 326 326 327 328 328 328 327 327 326 326 325 324 323 322 322 321 321 321 321 320 320 319 318 316 315 315 315 316 315 314 313 313 313 313 313 313 312 312 312 312 313 313 313 312 311
319 320 320 320 320 320 320 320 320 320 320 320 320 319 319 319 319 319 320 320 320 321 322 323 323 323 323 323 323 324 325 326 326 327 328 328 329 329 329 328 327 326 325 324 325 326 327 327 325 324 324 323 322 321 320 320 320 320 320 320 320 319 318 318 316 315 314 314 314 313 313 313 312 312 313 312 312 312 312 312 312 312 312 312 312 311 311
318 319 319 319 319 318 318 318 318 319 319 320 319 318 318 318 319 319 319 319 320 321 322 322 322 322 322 322 322 323 324 325 326 327 327 326 326 326 326 325 324 324 325 324 324 324 325 324 324 323 322 321 320 319 318 318 319 320 320 320 319 318 317 317 316 315 315 315 314 314 314 313 313 314 314 314 313 313 312 312 312 312 312 311 311 311 311
317 317 317 317 317 317 318 318 318 318 318 318 318 317 317 318 317 318 318 319 319 320 321 321 321 321 321 321 321 322 322 323 323 323 324 323 323 323 323 323 323 323 324 323 323 322 322 322 322 321 320 319 318 318 318 318 320 320 320 319 318 318 317 316 316 316 316 315 315 315 315 314 314 314 314 315 315 314 313 313 312 312 311 311 311 311 311
316 316 316 316 316 317 317 318 317 317 317 317 317 317 317 316 316 317 318 318 319 320 321 321 320 320 320 320 321 321 322 322 322 321 321 321 322 322 322 322 322 323 323 322 322 321 321 321 321 320 319 318 318 316 317 318 320 320 319 318 317 316 316 316 315 314 314 314 315 315 314 314 314 314 314 315 315 314 313 313 312 312 312 311 311 311 311
315 315 316 316 316 316 317 317 317 316 316 316 316 316 316 316 316 317 317 317 318 319 321 321 320 320 320 319 319 319 321 321 322 321 321 321 322 322 322 322 322 322 323 322 321 321 321 320 320 319 319 318 317 316 315 317 318 318 317 317 317 316 315 314 313 312 312 311 312 312 312 312 312 312 313 313 312 312 311 311 311 311 311 311 311 311 311
316 315 316 316 316 316 316 316 316 316 317 317 317 317 316 317 317 317 317 317 317 318 319 320 320 319 319 319 318 317 318 319 321 321 321 321 321 322 322 322 322 322 322 321 320 320 320 319 319 319 319 318 318 316 316 316 315 313 313 314 315 315 315 313 312 310 309 309 308 308 308 309 309 310 310 310 310 309 309 309 308 309 309 310 311 312 311
317 316 316 316 316 316 316 316 316 316 316 316 316 317 317 318 318 318 317 318 318 318 318 318 319 319 319 320 319 318 317 318 319 319 319 320 321 321 321 321 321 321 321 321 320 320 320 319 319 319 318 317 317 316 315 313 311 309 308 309 311 312 312 312 311 309 308 308 308 308 307 307 307 307 308 308 308 308 308 308 308 307 307 308 309 310 310
316 317 317 317 316 316 315 315 316 316 315 314 313 314 315 316 318 318 318 318 317 317 317 318 318 319 319 319 319 319 319 318 318 318 319 319 320 320 320 321 321 321 321 321 320 320 320 319 319 318 318 317 317 316 314 312 311 309 308 308 308 309 309 310 309 309 309 309 309 308 308 307 307 307 306 306 306 306 307 307 307 307 307 307 307 308 308
316 316 316 317 317 317 316 315 315 314 313 313 312 312 312 313 315 316 316 316 315 313 314 316 317 318 319 318 319 319 319 319 319 319 319 319 319 319 320 320 320 320 321 320 320 319 319 319 319 318 317 317 317 317 316 314 312 311 310 309 310 310 310 310 310 310 310 310 309 309 308 307 306 306 305 305 305 305 306 306 306 306 306 306 306 306 307
315 315 316 316 316 316 317 317 316 314 312 312 312 311 311 312 313 313 314 314 314 313 312 312 313 315 317 317 318 319 319 319 319 319 319 319 319 319 319 319 320 320 320 320 319 319 318 318 318 318 318 317 317 317 317 315 314 312 311 311 311 311 311 310 310 311 311 311 310 309 308 307 306 306 305 305 305 305 305 305 305 305 305 305 306 306 306
314 315 315 315 314 314 315 316 315 314 313 312 312 312 312 312 313 313 313 313 313 313 313 311 311 312 313 313 314 316 318 319 319 319 319 319 319 319 319 319 319 319 319 319 319 318 317 317 317 317 317 317 317 316 316 315 314 313 312 311 311 311 311 310 311 311 311 310 309 309 308 307 306 305 305 304 304 304 304 304 304 304 304 305 305 305 305
314 314 314 315 314 313 313 314 314 313 313 312 312 312 312 312 313 313 313 312 312 312 313 312 311 311 311 311 311 312 314 316 317 318 318 318 319 319 319 319 319 319 319 319 318 318 317 317 317 316 316 316 316 315 314 314 313 312 312 312 312 311 311 311 311 311 311 310 309 308 307 306 304 304 304 304 303 303 304 304 304 304 304 304 304 304 304
315 314 314 314 313 313 313 313 312 312 312 312 312 312 312 312 312 312 313 313 312 312 312 312 312 311 311 311 311 310 311 312 313 314 315 316 317 317 317 317 317 318 318 318 318 318 318 317 317 317 316 315 314 314 313 313 312 312 312 312 312 312 312 312 311 311 310 310 309 308 307 306 305 304 304 304 303 303 303 303 303 304 304 304 304 304 304
Wind_Speed
16 14 15 14 8 7 8 8 10 12 12 13 13 12 10 11 9 8 8 9 11 11 11 12 13 14 14 15 20 25 27 27 27 28 31 33 37 39 39 40 40 39 39 39 40 42 44 46 48 49 50 51 50 50 50 49 49 49 48 47 46 43 39 40 44 39 32 29 24 19 18 17 18 17 12 10 11 15 18 17 15 14 13 14 16 18 19
14 13 15 16 12 11 9 9 11 11 11 15 16 12 8 11 10 7 10 14 13 11 13 15 16 16 15 15 19 21 22 25 27 29 32 35 38 39 39 39 38 36 34 34 36 39 42 45 47 48 49 50 50 50 49 49 48 48 48 47 46 46 42 42 44 40 32 29 26 21 18 19 20 13 11 12 18 19 19 18 16 15 15 16 17 19 20
10 12 14 14 13 12 13 14 13 10 9 11 11 7 5 5 3 0 7 13 11 8 7 8 9 10 9 9 14 20 24 29 31 31 34 35 36 37 37 36 34 32 32 33 34 36 39 42 45 47 48 48 49 49 48 48 48 48 48 47 46 47 44 43 44 38 31 30 28 21 18 19 16 14 14 19 22 21 20 19 17 17 17 18 19 20 21
7 9 13 14 11 9 11 15 14 9 9 8 6 6 7 8 5 4 5 7 10 7 3 5 6 8 10 11 16 22 25 30 33 32 32 33 34 35 34 33 32 32 32 32 34 34 36 39 42 44 46 47 47 47 47 48 48 48 48 47 46 46 45 45 44 37 32 32 28 22 19 16 17 17 19 24 24 22 22 21 19 19 19 19 19 20 20
6 8 10 10 6 4 7 10 9 8 7 6 4 2 2 4 8 8 5 7 10 7 7 8 7 8 10 13 19 24 26 27 30 31 33 33 33 33 32 32 32 31 31 31 31 32 32 35 38 40 42 44 44 44 45 47 47 48 48 48 47 45 43 43 40 34 32 33 30 25 20 18 19 21 24 25 24 23 22 22 21 21 21 20 20 21 21
6 7 5 6 5 5 7 6 5 7 7 8 9 4 2 1 2 6 6 6 6 8 10 11 11 10 12 14 18 23 27 28 28 29 31 32 31 31 31 31 29 29 30 31 31 32 32 33 34 37 39 41 41 42 43 44 46 48 48 46 44 39 36 35 32 28 32 34 31 25 20 17 20 26 27 26 25 23 24 24 24 23 22 21 21 21 21
4 3 7 6 6 8 6 5 2 3 9 13 13 7 3 4 4 2 3 3 5 8 10 14 16 14 13 16 19 24 30 33 33 30 29 29 29 28 26 25 26 27 28 29 29 29 29 30 33 36 38 39 40 40 42 43 45 46 46 45 42 36 33 32 29 28 33 36 32 26 20 17 23 28 28 26 25 25 26 26 25 24 23 23 23 22 23
2 4 6 6 6 4 4 5 5 3 5 9 11 8 7 8 7 2 3 2 2 4 7 15 22 22 18 17 19 24 29 32 33 31 29 28 26 21 19 20 22 23 23 23 23 24 26 27 31 34 35 36 38 39 40 42 44 45 46 46 42 34 31 31 29 30 36 38 32 24 18 18 24 29 29 27 26 26 26 27 27 26 25 25 24 24 24
3 5 3 1 1 4 4 3 3 2 2 2 6 6 4 6 7 4 1 5 5 3 6 14 23 26 19 10 9 17 24 26 26 25 22 20 17 15 16 17 17 15 13 13 14 17 20 22 25 28 30 33 35 37 38 40 42 42 42 43 38 30 28 30 29 31 37 39 30 20 17 18 21 23 26 28 27 26 26 28 28 27 27 27 26 25 26
2 5 4 2 4 1 3 5 7 5 5 5 1 5 2 4 7 7 1 7 9 7 6 12 21 22 14 5 6 15 19 18 17 16 14 13 13 13 14 12 10 8 7 7 8 10 13 18 21 24 27 29 31 34 36 37 37 35 35 37 35 28 27 30 30 32 38 39 30 21 18 17 17 19 23 27 27 26 26 28 28 27 27 27 26 27 28
2 5 5 3 2 2 5 8 11 11 13 11 2 5 0 4 7 7 1 7 10 11 10 11 14 13 8 4 7 13 17 16 14 13 12 13 13 12 11 9 7 7 7 8 9 10 13 16 19 21 24 26 28 31 33 35 36 36 37 38 35 30 29 32 33 33 36 36 30 24 21 18 17 18 20 22 23 24 25 27 28 27 27 27 28 29 31
1 3 3 2 2 3 6 6 9 16 18 9 5 5 4 5 8 6 4 7 7 12 15 12 7 6 6 7 6 9 13 14 12 11 12 13 13 12 11 9 8 8 9 11 11 11 11 13 17 20 22 23 24 27 29 32 36 39 39 38 35 32 31 33 35 35 33 31 27 25 24 21 19 18 17 17 20 23 25 27 28 29 29 29 29 30 31
2 4 4 1 2 3 5 7 13 19 14 6 7 5 5 4 9 8 13 13 10 12 15 12 8 6 8 9 7 9 11 10 9 10 11 13 13 11 10 9 8 8 10 11 11 10 10 11 14 17 18 20 22 24 26 30 35 37 35 33 33 31 27 28 34 36 32 27 24 24 25 23 19 16 15 17 21 24 26 28 29 30 31 30 29 30 31
2 3 4 1 2 2 6 13 18 14 6 4 3 2 4 9 10 17 24 21 19 22 23 19 16 15 16 15 12 10 9 7 8 8 9 10 10 8 8 8 8 9 10 11 11 11 11 11 12 13 14 17 20 22 26 29 30 30 28 27 29 30 27 28 33 36 33 27 22 22 23 21 17 16 17 20 23 25 27 29 30 31 31 30 30 30 30
1 3 4 2 3 4 13 15 12 8 4 5 5 6 11 13 14 21 27 25 25 28 27 24 22 21 21 19 16 13 11 9 7 6 6 6 6 5 5 5 7 9 11 12 12 12 11 10 11 12 12 14 17 21 24 25 23 23 23 24 26 26 25 25 28 31 31 26 20 18 18 16 16 18 20 22 23 25 26 27 28 28 26 27 28 29 28
1 2 1 2 5 7 13 8 3 5 8 11 14 14 13 17 22 25 25 23 23 25 25 23 23 22 21 20 17 14 12 9 7 5 3 1 1 3 4 5 8 11 13 13 11 10 8 8 9 11 11 13 16 18 20 20 20 21 21 22 24 22 20 21 24 27 27 22 16 14 15 17 19 20 21 22 22 23 24 24 24 23 22 23 25 26 26
2 4 3 1 1 6 12 13 14 18 23 26 27 25 23 24 26 27 27 25 23 24 24 24 23 22 20 19 17 15 13 10 7 5 3 3 3 5 6 8 11 12 13 11 9 8 7 7 9 10 12 14 15 15 15 17 19 19 19 21 23 22 21 24 27 26 23 18 14 16 18 20 21 21 21 21 21 21 22 22 22 21 20 21 22 23 23
3 4 3 3 4 7 12 16 19 25 27 27 29 33 31 28 27 28 29 28 25 23 22 21 22 22 19 18 18 15 13 10 8 6 4 3 3 5 8 10 11 12 12 10 9 8 8 9 10 11 13 14 14 14 14 17 18 18 19 22 23 22 20 21 21 20 17 15 17 20 21 20 21 20 20 20 21 21 21 21 20 19 19 19 20 20 19
5 3 0 1 3 5 8 13 18 24 26 26 28 31 30 28 29 28 27 27 25 23 20 18 18 17 15 15 15 14 12 11 10 8 7 5 4 5 8 10 11 11 12 11 10 10 10 10 10 11 14 15 14 13 16 17 16 16 17 19 19 15 13 13 14 16 18 19 20 20 19 19 20 20 21 21 21 21 20 18 18 18 18 19 19 18 17
3 4 4 4 7 6 6 10 15 20 23 24 25 26 26 27 28 27 26 26 25 24 22 19 17 15 14 13 13 13 13 14 13 12 9 7 5 6 8 11 12 12 12 12 12 11 10 10 10 11 13 14 14 16 17 15 12 13 15 15 14 12 12 14 16 18 19 18 18 17 17 19 21 21 21 21 20 18 17 17 17 18 18 18 18 17 16
5 5 5 6 7 6 6 8 10 14 17 17 19 20 21 21 21 20 20 20 19 19 19 16 15 15 15 14 13 14 14 12 10 8 6 5 6 6 8 10 12 12 12 12 12 11 11 11 10 10 10 11 13 15 15 12 11 13 15 14 14 14 14 15 15 16 17 17 18 17 17 19 21 21 20 18 18 17 16 17 17 17 17 17 17 16 16
5 4 6 9 8 4 4 8 11 13 15 16 17 18 18 18 17 16 16 17 16 14 12 9 9 10 10 10 9 8 7 6 5 5 5 6 5 5 7 9 11 12 11 11 11 12 12 11 10 8 8 11 14 15 14 13 13 14 15 16 15 13 12 12 13 15 18 20 21 18 17 18 19 19 17 16 16 16 15 16 16 16 16 16 16 16 17
3 7 11 13 12 9 9 13 16 17 19 21 22 22 22 22 20 19 19 20 19 17 14 10 7 5 3 2 3 6 7 6 5 4 5 5 6 5 6 8 9 10 10 10 11 12 12 10 8 8 11 15 17 17 16 16 15 15 15 14 13 9 7 10 16 20 22 23 22 19 17 17 17 16 15 15 15 15 15 15 15 15 15 15 16 17 17
5 13 19 20 21 19 17 20 21 20 22 26 27 26 25 25 24 22 22 22 20 18 16 14 10 6 2 3 5 6 7 7 7 5 4 5 6 7 7 8 8 9 9 9 10 11 12 10 11 15 19 21 21 19 16 14 13 13 15 13 9 4 6 11 18 23 24 23 20 16 15 15 14 14 15 14 14 14 14 13 14 14 15 15 15 16 17
15 22 26 28 29 27 27 29 29 26 25 26 27 26 25 24 23 21 21 21 19 17 16 15 13 10 5 2 1 4 7 8 8 6 5 6 7 8 8 8 8 8 7 8 9 12 13 13 18 23 23 22 20 17 14 12 8 8 13 13 9 11 14 15 21 24 22 19 16 14 13 14 14 14 14 14 14 13 12 12 12 13 14 15 15 16 16
29 30 30 31 30 27 26 28 28 27 25 24 24 24 22 20 20 20 20 20 19 17 17 16 15 13 10 7 5 3 5 8 9 9 8 8 8 8 8 8 7 7 6 7 10 14 17 20 25 26 23 19 16 12 11 11 8 8 13 16 15 16 16 17 21 21 18 15 14 13 13 14 14 14 13 13 12 11 11 11 12 13 14 15 15 16 15
26 27 27 24 22 24 26 25 24 24 23 21 20 20 17 15 14 15 15 17 17 16 16 15 14 12 11 10 10 8 6 6 8 10 10 10 11 11 10 9 8 7 8 9 12 18 21 23 25 24 21 19 17 15 14 15 15 16 20 22 19 15 15 17 18 16 14 14 14 14 14 13 13 12 11 11 11 11 11 11 12 13 14 15 16 15 14
26 26 26 22 19 21 24 23 20 20 20 18 17 15 13 10 10 11 12 14 15 14 13 13 12 11 10 11 11 10 9 8 7 7 9 11 12 13 13 12 10 9 9 11 15 20 21 22 22 20 17 16 18 18 17 17 18 20 22 21 18 15 15 15 14 14 14 15 15 14 14 12 11 11 11 11 12 12 12 13 13 14 15 16 16 14 11
30 28 28 26 22 19 18 17 16 16 16 15 13 12 12 11 11 12 13 13 13 13 12 13 12 10 10 10 11 11 11 11 10 9 8 9 10 12 13 14 12 11 12 15 18 21 21 22 21 20 19 18 19 19 18 16 16 17 18 17 16 15 13 12 11 12 13 14 14 13 12 12 12 12 12 13 13 13 13 13 14 14 15 15 14 11 8
28 26 25 23 20 17 16 16 15 15 14 13 11 11 11 11 11 12 12 13 13 12 13 13 13 12 11 11 12 13 14 13 12 10 9 9 9 10 12 13 14 15 16 18 20 21 21 22 22 22 21 20 19 18 17 15 14 15 16 15 13 11 9 8 9 11 12 13 12 12 12 12 12 12 12 12 13 13 13 13 13 13 14 13 11 7 6
24 23 23 22 19 19 19 17 14 13 12 12 11 11 11 11 11 11 12 13 13 13 14 14 14 14 15 15 15 16 16 15 14 12 10 8 8 8 10 12 15 17 18 20 22 23 22 21 22 22 21 19 17 14 13 15 17 18 17 14 11 10 10 11 11 12 12 12 11 10 10 10 10 10 11 11 12 13 13 12 12 12 11 10 8 6 6
19 21 22 21 19 18 17 15 14 13 12 11 11 11 11 11 11 11 11 12 13 13 14 15 15 15 15 16 16 16 16 16 15 14 12 11 9 9 9 11 13 17 19 21 22 21 19 20 21 22 21 19 16 13 15 18 18 16 14 13 14 15 14 13 11 11 11 10 9 9 9 10 10 11 11 11 12 12 11 11 10 9 9 8 7 6 7
18 20 19 17 17 17 15 13 12 11 11 10 10 10 9 9 10 11 12 13 14 15 16 16 16 16 16 17 17 16 16 16 15 14 14 13 13 12 12 11 12 14 17 19 20 19 19 20 21 21 20 18 15 14 16 17 15 13 14 15 16 15 13 11 10 10 10 9 9 10 11 11 11 11 10 10 10 10 9 9 8 8 8 8 6 6 8
18 16 13 12 14 14 13 11 10 9 9 9 8 8 8 9 10 11 13 15 16 17 18 18 19 19 19 19 19 18 18 18 17 16 15 15 14 14 14 14 14 14 16 16 17 18 20 20 20 20 18 14 10 12 14 15 14 14 14 14 13 12 11 11 11 10 10 10 10 11 11 11 10 9 8 8 8 7 7 7 7 7 8 6 5 6 8
12 10 9 9 9 9 9 8 9 9 8 8 8 8 8 9 11 12 13 15 16 17 18 19 20 21 21 21 21 20 20 20 19 19 18 17 15 14 13 14 15 17 16 15 15 17 19 19 18 17 15 11 11 13 15 15 14 13 11 11 10 10 10 10 10 10 10 9 9 10 10 10 8 7 6 6 6 6 7 7 7 7 6 5 4 7 8
7 7 7 7 7 7 7 7 8 8 7 7 8 9 10 11 12 13 13 14 15 17 18 20 21 21 20 20 19 20 20 21 21 21 21 20 18 16 14 14 16 18 18 17 16 16 16 16 16 15 13 12 12 14 15 13 11 10 10 10 9 9 9 10 10 9 9 9 9 10 9 8 6 4 4 4 5 6 6 7 7 6 6 5 5 6 6
8 8 7 7 7 7 7 8 8 7 6 8 9 11 11 12 12 12 12 13 14 15 16 18 18 19 18 17 17 17 18 19 20 20 20 19 18 16 13 13 17 20 20 19 17 15 15 16 15 13 11 11 11 12 12 11 9 9 9 9 8 8 9 8 7 6 5 6 6 6 5 3 2 2 2 2 3 3 4 6 7 6 6 6 7 6 6
9 9 9 9 9 8 8 7 7 7 8 10 11 11 11 11 11 11 11 11 12 13 14 14 15 15 15 15 14 15 16 16 17 18 18 18 17 15 11 12 16 18 18 17 16 15 15 14 12 10 9 9 9 10 9 8 8 8 9 9 9 8 7 6 4 2 2 1 1 1 1 1 1 1 1 1 1 2 3 4 6 7 7 8 8 8 7
10 10 10 10 9 8 7 6 6 7 9 10 11 10 10 10 10 11 10 10 11 12 12 12 12 12 13 13 13 14 14 14 14 15 15 14 14 12 10 12 14 14 13 12 13 12 11 9 8 8 7 6 6 6 7 7 9 10 10 9 8 6 3 2 3 4 3 2 2 2 2 2 1 1 1 0 1 2 3 4 5 7 8 8 8 7 7
11 11 11 11 10 9 8 7 7 8 8 9 9 9 9 9 10 10 10 10 10 11 11 11 11 11 12 12 12 13 13 13 14 14 13 10 9 9 8 9 11 11 10 9 10 10 8 7 7 6 4 3 4 6 8 9 10 10 9 7 6 4 4 5 5 5 3 3 3 2 2 1 0 1 1 2 3 4 5 6 7 7 7 8 8 8 8
13 12 11 10 10 10 10 9 8 8 7 8 8 9 9 9 10 11 11 11 11 11 10 10 10 11 11 12 12 12 11 11 12 12 10 8 7 7 6 5 5 6 5 6 8 8 7 6 6 4 3 4 6 7 8 8 7 7 7 8 8 8 7 6 4 3 2 1 1 1 2 3 4 5 5 5 6 7 7 9 10 10 10 10 11 10 10
13 12 11 11 11 11 10 10 9 8 8 8 9 9 8 9 10 11 11 11 12 11 9 8 9 10 10 10 10 10 9 9 11 10 8 6 5 5 5 3 3 4 5 6 7 7 5 4 4 3 3 4 5 5 6 6 6 8 9 9 9 9 8 6 5 4 5 6 7 7 7 8 9 9 9 10 11 11 11 12 13 14 14 14 14 14 14
12 11 11 11 10 10 10 9 9 8 8 9 9 9 9 9 10 10 10 10 10 10 8 7 7 8 8 7 7 7 7 8 9 8 6 4 4 4 4 3 0 3 4 5 5 6 5 4 4 3 3 4 5 6 6 6 7 8 9 9 8 8 7 7 6 6 7 8 9 11 11 12 12 13 13 14 15 15 15 15 16 16 17 17 17 17 17
10 10 11 10 10 10 9 9 9 9 9 9 9 9 9 9 9 9 9 8 8 8 7 7 7 7 7 7 7 7 7 7 8 7 6 5 4 4 4 4 2 1 3 4 4 4 3 3 2 3 3 5 6 7 6 5 5 6 8 9 9 8 8 7 7 6 7 8 9 10 11 12 13 13 14 15 15 15 16 17 17 18 19 20 21 20 19
8 9 9 10 10 10 9 8 9 9 9 8 8 8 8 7 8 9 9 8 7 7 7 7 8 8 9 9 9 9 9 8 7 7 7 7 6 5 5 4 2 2 4 5 5 5 3 3 3 4 5 5 6 6 5 4 3 4 7 9 10 11 10 9 9 8 8 8 8 9 9 10 11 13 13 14 16 17 18 18 17 18 19 21 22 21 20
7 6 6 7 8 9 8 8 8 8 8 8 8 8 8 8 8 8 9 9 9 9 9 10 10 10 10 10 10 9 9 8 7 7 7 7 6 5 5 4 3 3 4 4 5 4 4 4 4 5 5 5 6 6 5 4 3 4 5 7 9 10 11 11 10 10 9 8 8 9 10 11 12 13 14 15 16 18 18 18 17 16 16 18 18 17 18
7 4 3 4 5 6 6 7 7 7 8 9 10 10 10 10 9 9 10 11 11 12 11 11 10 11 11 10 10 9 8 8 7 6 6 5 5 4 3 3 3 4 4 4 5 5 6 6 5 6 7 7 7 7 6 6 5 5 5 6 6 7 8 10 10 10 10 10 11 12 13 14 14 14 15 16 17 18 18 18 17 16 15 16 16 16 16
9 5 3 3 3 4 4 5 5 6 8 9 10 10 10 10 10 10 11 11 12 13 13 11 10 10 10 9 9 8 8 8 7 7 6 5 5 4 2 1 3 5 5 6 6 7 7 7 7 7 8 9 9 9 9 8 8 7 7 7 7 8 9 10 10 10 11 12 14 14 15 15 15 15 16 16 17 17 16 15 14 14 14 14 15 16 17
9 7 6 4 4 3 2 1 2 3 6 8 8 8 9 10 10 9 10 10 11 12 12 12 11 10 10 9 9 9 8 8 8 7 6 5 6 5 3 2 4 6 8 8 8 8 7 7 8 9 10 11 11 11 12 12 11 11 10 11 11 11 11 11 11 11 13 14 15 15 14 13 14 15 16 17 16 16 15 14 13 12 13 14 14 16 17
8 7 5 3 2 2 2 2 3 2 3 5 6 7 9 11 11 10 9 11 11 11 10 10 11 11 11 11 11 10 9 8 7 7 6 5 6 6 6 5 6 7 8 9 8 7 6 6 7 8 11 12 13 13 13 14 14 14 14 14 13 12 12 12 13 14 15 15 15 14 13 13 14 15 16 16 15 14 15 15 13 13 14 14 15 15 16
8 5 3 3 4 4 4 4 3 3 4 6 6 7 8 10 11 10 10 11 12 12 11 10 10 10 10 11 11 11 9 8 8 7 7 7 7 7 7 7 8 9 9 9 9 9 9 9 8 9 11 13 14 14 15 15 15 15 15 15 14 14 14 14 15 16 16 16 15 14 13 12 13 14 16 16 14 14 14 15 15 14 14 15 16 16 16
7 3 2 5 7 7 6 5 5 5 6 8 9 8 9 9 10 10 11 12 12 12 12 12 12 11 10 10 10 10 9 8 7 7 7 7 7 7 7 7 8 10 11 11 12 12 12 12 12 12 13 13 14 14 15 16 16 17 17 16 16 16 15 16 16 16 16 15 14 13 13 13 13 14 15 15 14 14 15 16 16 16 15 15 16 16 15
Wind_Direction
223 218 222 227 213 206 218 214 215 211 191 181 188 199 184 154 164 214 223 187 185 200 204 204 205 201 200 202 197 194 194 193 191 191 194 199 203 207 210 212 216 220 223 226 227 228 228 225 224 224 224 225 226 226 227 225 224 224 224 224 224 218 214 218 219 215 207 200 196 196 202 205 198 199 223 243 219 214 228 237 236 241 250 253 259 264 265
230 219 224 231 225 229 236 228 226 218 196 191 195 195 177 170 190 200 175 180 199 205 200 205 207 201 196 192 185 182 185 188 189 190 194 200 204 206 209 212 216 222 225 229 231 230 229 227 225 225 224 225 226 226 226 225 224 225 225 225 226 223 220 220 218 211 203 199 196 196 203 200 195 216 258 233 211 221 232 234 238 245 248 254 260 264 266
239 224 223 229 225 228 238 241 237 216 193 202 203 180 153 175 223 228 159 181 208 225 207 192 189 180 165 159 168 176 184 187 188 191 195 199 201 204 208 212 215 221 226 230 232 231 231 230 229 228 228 228 229 228 227 226 226 227 227 226 226 226 225 221 215 207 200 198 197 197 199 197 211 247 246 216 215 228 232 235 244 246 249 255 259 263 266
238 228 222 229 227 226 240 250 248 216 181 193 205 179 166 176 169 99 111 183 216 228 174 121 135 152 155 169 181 184 187 187 187 190 194 197 199 201 206 211 216 221 225 229 232 232 234 234 232 231 231 230 229 228 228 229 229 228 228 227 228 229 227 222 213 202 197 200 198 194 198 216 246 248 220 213 224 230 232 240 245 246 252 256 258 263 263
238 239 218 213 202 207 247 249 231 204 183 170 151 128 177 174 151 137 154 213 220 196 147 145 160 171 178 191 192 187 186 187 188 191 194 196 199 202 207 213 217 221 225 229 233 236 238 238 237 237 235 232 233 234 234 234 230 228 229 230 229 228 224 218 210 200 198 200 197 197 210 235 247 230 215 221 228 228 234 243 244 248 255 256 259 262 261
230 239 189 151 151 194 237 249 198 175 166 141 120 97 331 325 130 165 201 227 195 158 160 174 179 183 189 192 190 186 185 185 187 191 195 197 200 204 209 215 219 225 230 233 236 239 241 243 243 241 237 236 238 238 237 234 232 231 231 226 222 221 217 213 210 207 204 201 199 208 223 234 230 221 220 225 228 231 239 243 245 251 254 258 262 262 261
211 189 127 143 204 221 247 307 335 138 134 125 112 94 52 19 10 240 218 231 197 177 173 169 163 166 176 179 179 182 186 188 188 190 193 196 200 205 210 217 224 231 236 239 244 247 249 249 246 241 238 237 238 237 236 235 234 232 227 219 217 221 222 218 217 216 209 203 206 216 223 227 226 224 223 227 231 237 242 245 249 254 256 260 263 262 262
175 135 137 184 225 261 319 356 9 35 102 109 93 58 18 7 359 303 189 168 219 191 162 158 157 159 164 169 178 184 186 187 189 191 195 198 201 207 217 228 237 243 248 253 259 264 267 262 254 249 245 241 239 238 237 237 235 231 225 220 219 223 226 221 219 216 209 206 211 219 220 225 228 225 224 229 235 240 246 251 254 257 259 262 263 264 265
146 129 144 194 8 352 334 351 347 303 286 135 107 78 2 345 358 338 167 112 92 99 137 146 146 145 142 139 170 184 183 185 188 191 193 196 202 214 226 235 243 247 251 256 262 268 272 270 265 259 251 244 240 239 238 236 233 228 222 218 216 219 225 223 219 216 210 209 217 226 224 226 231 229 229 233 238 245 252 256 259 262 265 266 268 269 268
109 106 111 79 48 22 244 279 287 290 316 304 159 101 22 326 357 347 291 128 111 102 118 139 137 131 123 120 172 172 166 168 173 176 179 188 201 213 218 221 223 218 219 227 237 251 261 264 264 259 249 242 238 236 234 230 224 218 217 218 218 223 229 223 216 214 213 215 223 229 227 234 247 246 241 240 245 254 261 265 268 270 270 270 270 271 269
56 98 117 130 127 207 248 282 297 314 326 317 338 79 37 284 340 348 357 130 123 125 130 137 130 119 122 184 192 167 158 161 168 175 185 194 198 200 201 203 209 216 223 224 228 240 251 258 261 256 250 245 241 238 236 231 226 224 226 226 225 228 231 224 215 212 213 218 226 229 230 244 262 260 251 251 256 265 271 275 276 274 272 272 272 271 271
58 93 101 128 156 232 270 289 305 313 320 335 78 108 219 282 334 350 107 106 110 132 133 124 102 103 147 176 182 165 164 169 172 180 194 197 192 189 192 202 219 233 234 231 233 242 251 260 263 258 254 250 247 247 245 240 234 232 230 228 225 225 228 227 220 215 216 223 232 234 236 251 268 267 261 264 270 274 279 281 281 279 278 277 276 274 275
59 91 98 84 244 250 278 298 306 311 325 36 103 177 224 332 6 59 93 85 80 101 107 100 80 85 115 127 141 156 161 166 166 168 179 182 182 189 200 212 228 236 233 233 238 248 260 270 267 262 259 257 253 252 248 241 236 233 233 234 230 224 225 229 225 220 222 229 236 237 241 255 268 269 268 272 275 279 281 282 283 282 282 282 281 278 278
27 97 99 38 268 285 334 320 315 327 9 112 163 178 66 38 48 79 84 82 84 84 80 79 78 79 83 89 101 116 124 141 157 165 177 182 187 200 210 220 233 235 235 240 250 261 271 277 271 266 264 259 255 252 248 243 241 241 240 238 232 222 220 227 226 222 223 229 238 244 251 260 268 270 272 274 275 278 280 281 283 284 285 285 284 282 282
23 74 70 91 196 299 335 327 323 355 59 165 165 91 65 50 62 79 80 82 85 83 79 76 75 74 74 74 79 86 89 97 114 135 166 186 198 209 214 229 243 249 255 260 267 270 273 276 274 270 267 262 256 252 248 244 243 242 238 232 226 219 220 224 221 217 220 230 245 256 260 266 270 271 272 273 275 277 280 282 285 286 284 282 281 281 281
100 110 114 178 214 307 346 6 92 87 94 112 105 91 72 59 67 75 76 76 81 83 82 80 76 74 73 72 74 78 79 77 83 96 111 139 249 255 263 271 274 274 271 269 270 268 267 272 272 270 270 266 256 247 243 238 232 229 228 222 215 214 219 219 212 214 226 240 254 259 260 265 267 266 267 269 271 275 279 282 283 281 277 275 275 277 277
148 151 178 213 279 358 31 73 106 105 101 100 95 90 82 73 75 81 79 77 77 77 76 74 71 66 64 63 65 70 72 68 65 71 64 22 328 299 291 285 281 275 269 266 265 261 260 263 263 265 268 263 253 242 235 227 221 220 220 213 209 214 222 220 218 227 241 249 248 247 252 256 257 257 260 264 266 269 273 274 273 272 272 273 274 274 274
126 80 51 37 41 38 55 79 97 100 100 98 94 91 88 83 85 87 84 79 75 69 63 59 58 57 54 49 46 49 52 49 49 59 56 25 343 310 293 282 274 267 262 262 264 261 260 257 254 258 258 250 244 238 227 214 208 209 208 209 215 223 225 221 221 230 237 234 233 240 245 248 250 254 258 260 261 262 264 265 267 269 272 273 274 274 273
130 87 314 131 80 60 58 74 88 93 93 93 93 92 91 91 92 89 85 82 77 70 59 50 49 50 46 39 33 33 37 35 31 28 19 6 354 323 295 277 266 260 259 264 268 270 268 261 252 250 246 238 234 231 224 214 207 204 204 209 215 212 204 203 204 205 212 223 232 238 241 244 248 251 253 253 255 257 259 262 264 267 270 272 275 277 277
116 130 173 135 89 78 71 75 84 89 88 88 90 91 92 93 92 88 86 85 81 75 67 57 48 42 35 31 27 26 27 23 16 10 1 350 343 326 297 276 267 264 264 269 274 276 273 267 256 248 240 233 227 223 219 212 204 205 204 198 187 176 182 198 204 204 212 225 233 236 240 245 248 249 249 251 253 255 257 259 261 264 269 273 278 281 282
85 94 134 131 92 62 63 78 82 87 91 91 91 93 93 93 91 87 85 81 76 73 71 63 52 43 34 27 23 19 15 8 1 355 345 338 336 323 305 291 281 274 270 271 274 275 273 269 260 249 234 222 217 215 210 200 198 207 203 185 173 181 196 203 207 214 219 222 225 230 235 240 245 247 248 249 251 252 255 258 262 268 274 278 280 282 281
136 143 172 160 132 89 99 112 101 97 99 94 89 87 84 81 82 84 83 80 74 73 72 63 52 40 23 11 6 354 338 328 333 342 351 358 354 335 319 306 291 280 274 270 270 270 269 265 256 239 213 198 194 189 179 172 174 179 177 171 173 187 203 210 214 222 225 224 226 228 229 233 239 243 245 247 248 252 258 264 268 272 276 278 280 281 282
134 135 149 143 122 112 124 120 107 100 96 90 86 85 84 82 80 79 80 80 77 74 71 67 68 62 20 311 275 274 274 278 300 326 347 358 358 346 327 312 299 288 276 266 265 263 257 250 233 204 182 173 168 162 160 165 167 166 167 169 168 173 201 222 222 223 228 231 232 231 231 234 238 241 245 249 253 260 266 268 268 270 273 275 278 282 286
52 103 120 115 102 96 98 98 96 93 90 88 87 86 86 84 81 79 78 77 76 78 76 71 71 78 103 203 228 258 273 280 290 301 323 341 344 337 323 311 305 298 284 271 261 249 239 225 194 171 161 157 154 152 155 161 166 171 171 165 161 195 244 236 226 225 229 232 232 233 235 239 243 248 253 258 263 268 268 265 264 266 268 272 276 281 285
102 101 105 100 94 90 86 85 84 82 82 84 83 82 83 83 81 80 77 73 71 72 70 65 61 59 61 95 207 263 276 281 285 284 291 309 320 324 323 318 314 308 298 279 251 228 214 197 176 164 156 153 155 157 158 154 155 181 186 184 211 260 261 241 229 228 229 230 233 238 243 247 253 257 260 264 266 265 261 261 263 265 267 271 275 279 284
102 100 96 88 82 80 81 79 73 70 74 78 77 76 77 77 77 75 71 67 65 63 62 59 55 51 50 49 41 353 292 282 281 278 281 293 304 312 318 317 309 299 287 267 234 207 192 181 171 164 158 158 166 178 184 180 189 213 213 220 246 263 254 235 227 226 228 232 237 243 249 254 258 262 264 265 265 262 261 264 264 266 269 271 274 280 284
100 106 105 91 72 67 72 72 66 65 70 71 71 71 70 71 75 72 65 61 57 54 55 55 51 49 48 43 37 28 3 317 292 282 281 286 289 291 293 292 286 276 263 244 214 195 187 180 174 170 170 176 189 206 216 216 221 227 230 239 250 247 230 224 226 229 235 241 245 251 256 259 263 266 267 267 267 267 269 269 266 266 269 272 275 279 282
88 93 97 93 80 71 71 70 68 66 63 58 58 59 55 53 56 52 46 44 40 38 41 41 37 35 32 27 26 24 19 8 346 320 304 294 287 283 281 277 267 256 246 225 200 188 185 182 182 188 200 207 211 222 233 239 240 238 237 238 234 221 219 229 239 246 251 254 256 259 261 262 266 270 271 272 272 270 269 268 268 269 271 274 278 280 279
79 78 80 80 78 75 70 65 61 58 52 46 43 39 33 30 32 30 27 24 18 17 21 21 17 13 8 6 6 6 7 5 2 353 338 316 296 284 279 271 256 243 233 215 199 193 195 197 203 215 227 227 224 230 242 248 242 231 223 217 214 217 229 243 252 256 259 259 258 260 263 265 269 272 275 274 270 267 265 266 268 271 273 276 282 286 282
78 76 75 71 67 64 61 57 54 51 47 41 36 31 27 25 24 22 18 11 5 3 4 2 359 355 349 343 343 349 349 345 342 342 342 334 317 300 287 273 255 239 228 218 214 215 219 223 226 229 229 228 231 240 248 242 222 207 202 204 213 226 240 254 266 269 264 259 258 262 266 269 271 273 273 271 268 269 270 269 269 271 272 275 283 291 289
77 71 66 61 55 52 50 49 47 46 44 40 35 30 22 17 16 16 10 3 358 355 353 349 346 345 343 338 334 333 331 328 325 323 326 333 333 321 304 284 262 246 237 231 229 231 234 235 233 230 229 231 233 237 233 216 201 197 199 207 224 246 259 270 280 277 265 259 263 268 270 271 272 272 272 272 272 273 274 271 269 270 271 275 280 281 272
71 63 57 53 50 49 47 43 38 36 36 33 30 29 23 15 11 8 3 359 356 351 345 341 338 338 338 336 331 327 325 324 320 313 310 314 319 324 321 303 278 262 253 245 239 238 242 243 239 236 233 228 221 217 214 209 206 210 220 232 245 256 264 273 276 269 262 265 275 281 282 282 280 277 275 273 271 270 269 268 269 273 276 278 277 269 255
61 59 51 45 46 48 47 42 34 28 25 20 18 20 17 7 358 350 346 344 342 338 335 334 332 329 327 325 323 323 323 324 322 315 309 305 305 311 316 308 290 272 260 254 250 250 251 248 241 232 219 209 209 218 221 221 226 238 247 252 256 260 267 275 273 268 269 276 283 289 291 287 281 276 272 268 264 261 261 264 270 279 284 283 275 259 248
59 62 54 42 40 39 37 35 29 23 19 14 7 1 357 351 343 335 331 329 328 327 327 325 322 319 316 314 313 313 316 319 322 322 318 310 305 306 305 299 286 270 259 257 258 254 248 241 233 220 205 201 222 241 236 233 241 248 251 258 263 265 268 272 270 269 275 280 284 288 287 280 273 269 264 259 255 252 255 264 272 280 285 280 256 240 239
56 59 54 47 40 34 30 25 17 10 11 9 2 356 350 343 337 332 328 325 322 321 320 317 315 312 311 309 307 305 307 310 314 318 319 315 307 299 293 285 275 266 260 257 251 242 234 228 221 214 211 224 245 244 235 236 245 253 260 267 267 263 265 267 267 271 277 279 282 282 277 272 269 264 256 251 251 251 256 262 267 274 278 270 240 229 233
49 48 48 47 44 36 25 12 5 7 12 10 3 355 345 338 335 332 327 322 319 317 314 312 309 308 308 308 308 306 306 307 310 311 312 311 306 297 286 273 262 257 254 247 235 223 218 218 221 225 231 236 233 227 230 241 253 262 268 269 265 263 267 268 269 275 277 275 274 272 267 265 263 257 251 254 257 260 266 269 269 271 270 264 253 243 241
43 39 36 30 24 22 18 16 18 22 17 6 357 351 346 342 340 336 331 327 323 320 317 316 314 312 311 311 312 312 314 316 317 316 313 311 307 301 289 267 253 247 244 237 226 215 215 223 230 234 232 225 221 227 238 250 258 260 263 265 266 269 271 270 273 277 272 267 268 263 253 241 233 240 264 277 268 271 282 283 279 277 272 267 267 265 262
30 26 22 14 8 7 9 13 13 6 356 354 355 353 351 349 346 343 341 337 334 332 329 328 328 327 325 323 324 327 329 329 325 321 318 317 314 305 283 251 237 235 234 230 222 216 218 223 225 223 222 224 231 242 251 259 264 265 269 274 276 277 279 277 269 249 218 218 231 210 189 171 163 184 285 291 275 289 297 288 282 281 278 274 272 267 265
29 26 22 15 12 12 9 4 357 349 346 349 352 353 353 351 347 346 345 343 341 342 343 343 345 347 346 345 344 341 336 332 325 319 315 315 313 302 274 243 233 237 243 236 220 211 211 213 209 209 216 223 230 240 249 256 262 265 269 271 271 268 258 212 171 147 123 101 106 128 138 129 111 85 48 276 261 279 292 293 288 283 276 271 267 262 265
35 29 22 17 14 13 9 3 357 349 345 347 350 351 350 348 347 347 348 349 350 355 358 0 1 0 360 1 357 346 335 331 328 320 309 301 296 288 271 249 241 247 252 238 212 195 184 182 185 191 204 224 245 262 264 261 259 259 256 247 230 201 170 156 150 140 116 95 103 122 147 172 186 319 313 296 288 287 287 285 282 275 267 264 263 263 269
44 38 33 26 22 19 15 12 6 357 349 348 349 348 348 349 350 351 351 352 355 1 6 7 6 5 6 9 6 356 346 344 343 336 325 317 308 298 287 270 249 234 215 194 186 179 168 169 185 213 252 259 259 263 261 251 240 228 215 202 189 177 171 168 170 174 178 173 187 234 262 272 276 279 281 282 284 283 279 274 271 266 262 261 261 261 266
47 45 41 38 34 31 28 24 18 10 1 353 350 351 355 358 357 355 354 353 353 355 358 0 359 359 1 4 3 358 353 353 354 350 346 344 340 329 320 309 258 215 191 180 184 190 193 200 212 223 229 221 215 217 221 217 204 194 193 194 191 188 189 196 208 224 241 252 256 259 264 267 269 270 272 275 277 276 273 269 265 260 257 258 257 256 256
42 39 38 37 36 33 32 31 30 25 20 16 14 14 12 10 5 2 1 0 358 356 356 355 352 353 359 5 2 353 343 342 347 350 354 4 6 356 354 3 338 211 211 210 210 208 206 205 199 186 173 175 172 168 171 183 194 199 203 206 205 205 211 221 231 243 254 260 263 266 268 268 267 266 266 268 270 271 269 266 261 257 255 255 254 253 251
39 36 35 35 31 28 29 31 31 30 30 29 28 24 17 12 9 7 8 10 8 5 3 1 356 356 1 3 360 354 349 349 353 357 3 15 22 15 7 8 13 189 198 206 210 205 201 200 195 177 166 165 163 158 159 175 202 218 224 225 225 227 229 233 242 254 263 267 271 275 277 276 274 272 270 269 270 271 271 269 267 265 261 257 254 251 248
34 34 34 33 29 28 32 36 38 39 38 36 32 28 22 17 15 13 13 15 14 11 9 8 5 1 0 359 356 353 350 350 354 359 360 3 8 10 2 350 319 244 216 208 201 199 218 248 233 197 181 174 172 175 182 196 216 225 226 228 232 237 239 243 254 266 271 274 278 283 284 284 283 283 283 283 283 280 276 273 271 269 265 261 257 253 246
20 21 25 27 27 30 37 44 47 44 41 41 42 39 34 30 26 21 19 20 20 19 18 15 10 4 2 1 0 355 347 341 344 351 355 356 357 358 352 332 287 251 238 226 214 218 247 263 242 209 201 197 189 189 201 221 237 234 227 226 232 239 245 252 262 270 272 273 275 279 281 283 285 285 287 288 287 281 274 269 267 267 267 264 259 251 244
23 20 17 24 30 35 40 45 46 42 36 36 38 39 38 37 33 26 25 28 28 24 20 16 9 2 358 356 356 355 351 344 340 341 344 343 341 343 344 321 283 260 247 246 254 264 271 268 247 224 219 217 212 212 220 231 237 237 233 229 235 248 258 264 271 278 282 283 283 284 284 284 284 284 285 287 288 284 277 269 265 265 266 264 257 248 242
35 43 50 40 36 41 41 38 37 36 32 29 30 34 37 37 33 27 27 29 29 24 20 14 7 1 358 354 349 344 342 340 338 338 341 340 335 335 344 307 270 262 255 256 269 276 270 255 238 224 222 226 230 232 235 239 244 247 245 243 248 260 266 268 273 286 296 298 296 293 288 286 285 286 288 292 294 289 279 270 265 263 260 256 251 244 240
41 55 67 62 46 40 28 346 337 21 32 33 36 37 34 30 27 24 18 14 12 12 14 17 17 12 5 360 353 343 336 333 331 329 331 334 331 327 321 277 256 258 259 263 270 272 261 247 236 228 228 236 243 244 244 245 248 248 248 252 259 265 268 270 279 292 299 297 293 288 285 286 288 288 290 294 295 288 274 267 266 266 261 254 247 242 238
33 42 56 63 49 31 1 304 286 309 1 20 30 32 26 20 18 14 7 1 357 355 358 11 21 22 15 8 1 351 339 330 324 318 317 319 316 312 305 289 271 267 267 266 262 253 242 240 241 237 236 241 247 248 247 248 248 248 250 257 263 266 267 271 279 287 289 287 284 284 289 297 300 297 293 295 297 288 273 264 262 263 262 259 255 250 243
17 16 21 23 19 13 2 349 339 337 348 0 5 6 5 7 7 0 351 348 349 347 345 349 359 4 6 7 5 358 346 333 323 317 315 313 311 309 305 295 283 276 271 262 250 241 240 246 253 253 251 251 252 250 249 249 250 251 254 259 262 263 266 270 275 278 279 276 276 282 293 303 306 304 298 295 294 289 278 268 262 260 259 258 256 252 244
11 9 10 10 7 1 353 353 354 350 351 358 0 357 355 357 357 349 340 336 337 338 337 333 333 336 339 343 348 354 357 352 342 333 327 323 320 318 315 308 298 290 283 274 263 254 250 251 254 256 258 260 259 256 253 252 252 253 257 261 262 263 265 267 268 269 269 268 271 280 292 297 299 298 294 289 286 285 280 273 266 261 257 254 252 248 243